Location: Tamazert
(32.6352°N, 5.2072°W)
Time: 04:58:34
(UTC+00:00)

Vanguard 1 Rocket - Pass Details

Date: 06 October 2022
Orbit: 650 x 4225 km, 34.3° (Epoch: 04 December)

Event Time Altitude Azimuth Distance (km) Brightness Sun altitude
Rises 02:09:01 0° 283° (WNW) 4,933 - -50.7°
Reaches altitude 10° 02:13:48 10° 269° (W) 3,326 - -49.9°
Maximum altitude 02:19:03 20° 225° (SW) 2,073 - -49.0°
Drops below altitude 10° 02:22:53 10° 178° (S) 2,330 - -48.4°
Sets 02:25:32 0° 159° (SSE) 3,067 - -47.9°
